QPF
0.00 0.00 0.00 0.00 0.00 0.00 0.00 0.00 0.00 0.00 0.00 0.00 0.00 0.00 0.00 0.00 0.00 0.00 0.00 0.00 0.00 0.00 0.00 0.00 0.00 0.00 0.00 0.00 0.00 0.00 0.00 0.00 0.00 0.00 0.00 0.00 0.00 0.00 0.00 0.00 0.00 0.00
0.00 0.00 0.00 0.00 0.00 0.00 0.00 0.00 0.00 0.00 0.00 0.00 0.00 0.00 0.00 0.00 0.00 0.00 0.00 0.00 0.00 0.00 0.00 0.00 0.00 0.00 0.00 0.00 0.00 0.00 0.00 0.00 0.00 0.00 0.00 0.00 0.00 0.00 0.00 0.00 0.00 0.00
0.00 0.00 0.00 0.00 0.00 0.00 0.00 0.00 0.00 0.00 0.00 0.00 0.00 0.00 0.00 0.00 0.00 0.00 0.00 0.00 0.00 0.00 0.00 0.00 0.00 0.00 0.00 0.00 0.00 0.00 0.00 0.00 0.00 0.00 0.00 0.00 0.00 0.00 0.00 0.00 0.00 0.00
0.00 0.00 0.00 0.00 0.00 0.00 0.00 0.00 0.00 0.00 0.00 0.00 0.00 0.00 0.00 0.00 0.00 0.00 0.00 0.00 0.00 0.00 0.00 0.00 0.00 0.00 0.00 0.00 0.00 0.00 0.00 0.00 0.00 0.00 0.00 0.00 0.00 0.00 0.00 0.00 0.00 0.00
0.00 0.00 0.00 0.00 0.00 0.00 0.00 0.00 0.00 0.00 0.00 0.00 0.00 0.00 0.00 0.00 0.00 0.00 0.00 0.00 0.00 0.00 0.00 0.00 0.00 0.00 0.00 0.00 0.00 0.00 0.00 0.00 0.00 0.00 0.00 0.00 0.00 0.00 0.00 0.00 0.00 0.00
0.00 0.00 0.00 0.00 0.00 0.00 0.00 0.00 0.00 0.00 0.00 0.00 0.00 0.00 0.00 0.00 0.00 0.00 0.00 0.00 0.00 0.00 0.00 0.00 0.00 0.00 0.00 0.00 0.00 0.00 0.00 0.00 0.00 0.00 0.00 0.00 0.00 0.00 0.00 0.00 0.00 0.00
0.00 0.00 0.00 0.00 0.00 0.00 0.00 0.00 0.00 0.00 0.00 0.00 0.00 0.00 0.00 0.00 0.00 0.00 0.00 0.00 0.00 0.00 0.00 0.00 0.00 0.00 0.00 0.00 0.00 0.00 0.00 0.00 0.00 0.00 0.00 0.00 0.00 0.00 0.00 0.00 0.00 0.00
0.00 0.00 0.00 0.00 0.00 0.00 0.00 0.00 0.00 0.00 0.00 0.00 0.00 0.00 0.00 0.00 0.00 0.00 0.00 0.00 0.00 0.00 0.00 0.00 0.00 0.00 0.00 0.00 0.00 0.00 0.00 0.00 0.00 0.00 0.00 0.00 0.00 0.00 0.00 0.00 0.00 0.00
0.00 0.00 0.00 0.00 0.00 0.00 0.00 0.00 0.00 0.00 0.00 0.00 0.00 0.00 0.00 0.00 0.00 0.00 0.00 0.00 0.00 0.00 0.00 0.00 0.00 0.00 0.00 0.00 0.00 0.00 0.00 0.00 0.00 0.00 0.00 0.00 0.00 0.00 0.00 0.00 0.00 0.00
0.00 0.00 0.00 0.00 0.00 0.00 0.00 0.00 0.00 0.00 0.00 0.00 0.00 0.00 0.00 0.00 0.00 0.00 0.00 0.00 0.00 0.00 0.00 0.00 0.00 0.00 0.00 0.00 0.00 0.00 0.00 0.00 0.00 0.00 0.00 0.00 0.00 0.00 0.00 0.00 0.00 0.00
0.00 0.00 0.00 0.00 0.00 0.00 0.00 0.00 0.00 0.00 0.00 0.00 0.00 0.00 0.00 0.00 0.00 0.00 0.00 0.00 0.00 0.00 0.00 0.00 0.00 0.00 0.00 0.00 0.00 0.00 0.00 0.00 0.00 0.00 0.00 0.00 0.00 0.00 0.00 0.01 0.01 0.00
0.00 0.00 0.00 0.00 0.00 0.00 0.00 0.00 0.00 0.00 0.00 0.00 0.00 0.00 0.00 0.00 0.00 0.00 0.00 0.00 0.00 0.00 0.00 0.00 0.00 0.00 0.00 0.00 0.00 0.00 0.00 0.00 0.00 0.00 0.00 0.00 0.00 0.00 0.01 0.01 0.00 0.00
0.00 0.00 0.00 0.00 0.00 0.00 0.00 0.00 0.00 0.00 0.00 0.00 0.00 0.00 0.00 0.00 0.00 0.00 0.00 0.00 0.00 0.00 0.00 0.00 0.00 0.00 0.00 0.00 0.00 0.00 0.00 0.00 0.00 0.00 0.01 0.01 0.01 0.01 0.00 0.00 0.00 0.00
0.00 0.00 0.00 0.00 0.00 0.00 0.00 0.00 0.00 0.00 0.00 0.00 0.00 0.00 0.00 0.00 0.00 0.00 0.00 0.00 0.00 0.00 0.00 0.00 0.00 0.00 0.00 0.00 0.00 0.00 0.00 0.01 0.01 0.02 0.02 0.02 0.01 0.00 0.00 0.00 0.00 0.00
0.00 0.00 0.00 0.00 0.00 0.00 0.00 0.00 0.00 0.00 0.00 0.00 0.00 0.00 0.00 0.00 0.00 0.00 0.00 0.00 0.00 0.00 0.00 0.00 0.00 0.00 0.00 0.00 0.00 0.00 0.01 0.03 0.03 0.03 0.02 0.01 0.02 0.02 0.01 0.00 0.00 0.00
0.00 0.00 0.00 0.00 0.00 0.00 0.00 0.00 0.00 0.00 0.00 0.00 0.00 0.00 0.00 0.00 0.00 0.00 0.00 0.00 0.00 0.00 0.00 0.00 0.00 0.00 0.00 0.00 0.00 0.02 0.03 0.03 0.03 0.03 0.03 0.03 0.02 0.01 0.00 0.00 0.00 0.00
0.00 0.00 0.00 0.00 0.00 0.00 0.00 0.00 0.00 0.00 0.00 0.00 0.00 0.00 0.00 0.00 0.00 0.00 0.00 0.00 0.00 0.00 0.00 0.00 0.00 0.00 0.00 0.00 0.02 0.03 0.03 0.03 0.04 0.05 0.04 0.03 0.01 0.01 0.00 0.00 0.00 0.00
0.00 0.00 0.00 0.00 0.00 0.00 0.00 0.00 0.00 0.00 0.00 0.00 0.00 0.00 0.00 0.00 0.00 0.00 0.00 0.00 0.00 0.00 0.00 0.00 0.00 0.00 0.00 0.01 0.02 0.03 0.03 0.05 0.06 0.05 0.03 0.02 0.01 0.00 0.00 0.00 0.00 0.00
0.00 0.00 0.00 0.00 0.00 0.00 0.00 0.00 0.00 0.00 0.00 0.00 0.00 0.00 0.00 0.00 0.00 0.00 0.00 0.00 0.00 0.00 0.00 0.00 0.00 0.00 0.00 0.01 0.02 0.03 0.04 0.05 0.05 0.06 0.04 0.02 0.00 0.00 0.00 0.00 0.00 0.00
0.00 0.00 0.00 0.00 0.00 0.00 0.00 0.00 0.00 0.00 0.00 0.00 0.00 0.00 0.00 0.00 0.00 0.00 0.00 0.00 0.00 0.00 0.00 0.00 0.00 0.00 0.00 0.01 0.03 0.03 0.04 0.04 0.06 0.05 0.03 0.01 0.00 0.00 0.00 0.00 0.00 0.00
0.00 0.00 0.00 0.00 0.00 0.00 0.00 0.00 0.00 0.00 0.00 0.00 0.00 0.00 0.00 0.00 0.00 0.00 0.00 0.00 0.00 0.00 0.00 0.00 0.00 0.00 0.00 0.01 0.02 0.03 0.03 0.04 0.05 0.03 0.01 0.00 0.00 0.00 0.00 0.00 0.00 0.00
0.00 0.00 0.00 0.00 0.00 0.00 0.00 0.00 0.00 0.00 0.00 0.00 0.00 0.00 0.00 0.00 0.00 0.00 0.00 0.00 0.00 0.00 0.00 0.00 0.00 0.00 0.00 0.01 0.01 0.02 0.03 0.04 0.02 0.01 0.01 0.00 0.00 0.00 0.00 0.00 0.00 0.00
0.00 0.00 0.00 0.00 0.00 0.00 0.00 0.00 0.00 0.00 0.00 0.00 0.00 0.00 0.00 0.00 0.00 0.00 0.00 0.00 0.00 0.00 0.00 0.00 0.00 0.00 0.00 0.00 0.01 0.02 0.03 0.03 0.03 0.02 0.01 0.00 0.00 0.00 0.00 0.00 0.00 0.00
0.00 0.00 0.00 0.00 0.00 0.00 0.00 0.00 0.00 0.00 0.00 0.00 0.00 0.00 0.00 0.00 0.00 0.00 0.00 0.00 0.00 0.00 0.00 0.00 0.00 0.00 0.00 0.00 0.00 0.01 0.02 0.03 0.02 0.01 0.01 0.00 0.00 0.00 0.00 0.00 0.00 0.00
0.00 0.00 0.00 0.00 0.00 0.00 0.00 0.00 0.00 0.00 0.00 0.00 0.00 0.00 0.00 0.00 0.00 0.00 0.00 0.00 0.00 0.00 0.00 0.00 0.00 0.00 0.00 0.00 0.00 0.01 0.02 0.03 0.03 0.01 0.01 0.00 0.00 0.00 0.00 0.00 0.00 0.00
0.00 0.00 0.00 0.00 0.00 0.00 0.00 0.00 0.00 0.00 0.00 0.00 0.00 0.00 0.00 0.00 0.00 0.00 0.00 0.00 0.00 0.00 0.00 0.00 0.00 0.00 0.00 0.00 0.00 0.00 0.01 0.02 0.02 0.01 0.01 0.00 0.00 0.00 0.00 0.00 0.00 0.00
MSLP
1048.44 1048.48 1048.52 1048.52 1048.48 1048.40 1048.28 1048.04 1048.00 1047.76 1047.64 1047.48 1047.28 1047.04 1046.80 1046.48 1046.12 1045.84 1045.64 1045.36 1045.04 1044.72 1044.44 1044.24 1044.00 1043.80 1043.52 1043.24 1042.96 1042.52 1042.00 1041.28 1040.64 1039.92 1039.48 1039.36 1039.36 1039.16 1039.04 1038.88 1038.68 1038.32
1048.68 1048.68 1048.68 1048.72 1048.64 1048.56 1048.44 1048.28 1048.32 1048.04 1047.96 1047.80 1047.60 1047.36 1047.12 1046.76 1046.52 1046.16 1046.00 1045.60 1045.20 1044.92 1044.64 1044.32 1044.08 1043.84 1043.60 1043.32 1043.04 1042.72 1042.20 1041.64 1041.16 1040.48 1039.64 1039.28 1039.12 1039.00 1038.96 1038.68 1038.52 1038.28
1048.76 1048.76 1048.72 1048.76 1048.64 1048.60 1048.44 1048.40 1048.32 1048.16 1048.08 1048.00 1047.76 1047.60 1047.36 1047.04 1046.68 1046.48 1046.16 1045.80 1045.36 1045.00 1044.68 1044.36 1044.08 1043.80 1043.60 1043.36 1043.04 1042.80 1042.40 1041.96 1041.48 1040.80 1040.32 1039.68 1039.08 1038.88 1038.80 1038.56 1038.40 1038.20
1048.76 1048.72 1048.68 1048.68 1048.56 1048.56 1048.40 1048.44 1048.36 1048.24 1048.20 1048.08 1047.88 1047.72 1047.52 1047.16 1046.88 1046.64 1046.28 1045.96 1045.60 1045.20 1044.84 1044.52 1044.16 1043.80 1043.56 1043.28 1043.00 1042.76 1042.44 1042.12 1041.68 1041.20 1040.80 1040.16 1039.44 1038.84 1038.64 1038.40 1038.28 1038.04
1048.72 1048.68 1048.60 1048.60 1048.56 1048.52 1048.52 1048.60 1048.56 1048.44 1048.40 1048.20 1047.96 1047.76 1047.48 1047.20 1047.04 1046.72 1046.44 1046.16 1045.76 1045.40 1045.04 1044.72 1044.28 1043.92 1043.56 1043.28 1043.00 1042.68 1042.36 1042.04 1041.72 1041.40 1041.12 1040.60 1039.92 1039.04 1038.56 1038.24 1038.16 1037.92
1048.68 1048.64 1048.64 1048.64 1048.72 1048.64 1048.76 1048.76 1048.68 1048.56 1048.44 1048.16 1047.96 1047.80 1047.52 1047.32 1047.12 1046.80 1046.52 1046.20 1045.88 1045.52 1045.20 1044.80 1044.40 1043.96 1043.60 1043.32 1043.00 1042.72 1042.36 1042.00 1041.68 1041.36 1041.08 1040.64 1040.04 1039.48 1038.84 1038.40 1038.04 1037.80
1048.84 1048.76 1048.80 1048.72 1048.84 1048.80 1048.80 1048.80 1048.64 1048.48 1048.32 1048.12 1047.92 1047.76 1047.40 1047.28 1046.96 1046.76 1046.48 1046.20 1045.84 1045.52 1045.16 1044.80 1044.36 1043.92 1043.56 1043.24 1042.96 1042.56 1042.28 1041.96 1041.64 1041.28 1040.96 1040.56 1040.00 1039.48 1038.96 1038.40 1038.00 1037.64
1049.00 1048.92 1048.84 1048.84 1048.88 1048.84 1048.76 1048.64 1048.52 1048.36 1048.20 1048.04 1047.84 1047.60 1047.32 1047.12 1046.92 1046.68 1046.48 1046.16 1045.88 1045.56 1045.20 1044.88 1044.48 1044.04 1043.64 1043.28 1042.92 1042.48 1042.08 1041.84 1041.48 1041.12 1040.72 1040.36 1039.96 1039.44 1038.88 1038.36 1037.84 1037.52
1049.08 1049.00 1048.92 1048.92 1048.84 1048.76 1048.64 1048.52 1048.36 1048.28 1048.08 1047.92 1047.72 1047.48 1047.28 1047.12 1046.88 1046.64 1046.36 1046.16 1045.88 1045.56 1045.24 1044.92 1044.48 1044.16 1043.76 1043.28 1042.96 1042.52 1042.08 1041.72 1041.40 1041.08 1040.68 1040.16 1039.76 1039.24 1038.68 1038.08 1037.60 1037.24
1049.20 1049.08 1049.00 1048.88 1048.76 1048.60 1048.48 1048.36 1048.24 1048.12 1047.92 1047.80 1047.60 1047.40 1047.16 1046.92 1046.76 1046.44 1046.24 1045.92 1045.64 1045.28 1045.00 1044.64 1044.32 1043.96 1043.52 1043.20 1042.84 1042.48 1042.12 1041.68 1041.32 1041.00 1040.56 1040.08 1039.56 1039.00 1038.40 1037.80 1037.24 1037.04
1049.24 1049.04 1048.92 1048.76 1048.60 1048.48 1048.32 1048.20 1048.12 1047.96 1047.84 1047.68 1047.44 1047.16 1046.92 1046.68 1046.44 1046.24 1045.92 1045.68 1045.32 1045.00 1044.64 1044.40 1044.16 1043.76 1043.36 1043.04 1042.72 1042.44 1042.08 1041.68 1041.24 1040.84 1040.36 1039.80 1039.28 1038.72 1038.04 1037.28 1037.00 1036.96
1049.08 1048.88 1048.76 1048.60 1048.44 1048.36 1048.20 1048.12 1048.00 1047.88 1047.64 1047.48 1047.20 1046.92 1046.64 1046.44 1046.16 1045.92 1045.64 1045.32 1045.12 1044.80 1044.52 1044.20 1043.88 1043.60 1043.24 1042.88 1042.52 1042.20 1041.88 1041.52 1041.12 1040.60 1040.00 1039.44 1038.80 1038.20 1037.44 1037.08 1037.00 1036.88
1048.84 1048.72 1048.60 1048.48 1048.32 1048.24 1048.12 1048.00 1047.80 1047.60 1047.40 1047.16 1046.88 1046.72 1046.40 1046.04 1045.84 1045.56 1045.40 1045.16 1044.88 1044.60 1044.32 1043.96 1043.64 1043.36 1043.08 1042.72 1042.40 1042.08 1041.68 1041.28 1040.80 1040.16 1039.48 1038.84 1038.28 1037.60 1036.92 1036.92 1036.96 1036.84
1048.68 1048.60 1048.48 1048.36 1048.28 1048.16 1048.00 1047.80 1047.56 1047.36 1047.12 1046.88 1046.64 1046.40 1046.12 1045.88 1045.60 1045.28 1045.08 1044.96 1044.68 1044.36 1044.04 1043.76 1043.48 1043.16 1042.92 1042.60 1042.24 1041.88 1041.40 1040.88 1040.24 1039.44 1038.80 1038.24 1037.56 1036.88 1036.80 1036.92 1036.88 1036.80
1048.56 1048.48 1048.40 1048.24 1048.16 1047.96 1047.72 1047.52 1047.28 1047.04 1046.80 1046.60 1046.36 1046.12 1045.92 1045.68 1045.44 1045.16 1044.80 1044.52 1044.36 1044.08 1043.72 1043.52 1043.36 1043.00 1042.72 1042.36 1041.84 1041.28 1040.92 1040.04 1039.00 1038.48 1037.96 1037.28 1036.72 1036.68 1036.84 1036.80 1036.80 1036.72
1048.40 1048.32 1048.12 1048.04 1047.88 1047.64 1047.44 1047.24 1047.00 1046.76 1046.52 1046.28 1046.04 1045.88 1045.64 1045.40 1045.16 1044.92 1044.72 1044.40 1043.96 1043.64 1043.48 1043.32 1043.04 1042.76 1042.36 1042.00 1041.44 1040.48 1039.40 1038.76 1038.28 1037.80 1037.28 1036.72 1036.56 1036.64 1036.64 1036.60 1036.52 1036.52
1048.20 1048.04 1047.88 1047.76 1047.56 1047.44 1047.20 1046.96 1046.68 1046.48 1046.28 1046.00 1045.76 1045.60 1045.32 1045.08 1044.84 1044.60 1044.36 1044.16 1043.80 1043.40 1043.12 1042.96 1042.68 1042.40 1042.04 1041.12 1039.96 1039.24 1038.84 1038.32 1037.76 1037.16 1036.76 1036.56 1036.60 1036.56 1036.44 1036.36 1036.32 1036.36
1047.96 1047.84 1047.68 1047.48 1047.36 1047.12 1046.88 1046.68 1046.48 1046.24 1045.96 1045.68 1045.48 1045.20 1045.00 1044.80 1044.56 1044.28 1044.08 1043.84 1043.56 1043.20 1042.92 1042.60 1042.24 1041.96 1041.40 1040.40 1039.60 1038.80 1038.20 1037.72 1037.20 1036.84 1036.56 1036.64 1036.64 1036.56 1036.48 1036.40 1036.32 1036.24
1047.80 1047.64 1047.44 1047.24 1047.04 1046.84 1046.64 1046.40 1046.12 1045.88 1045.64 1045.40 1045.16 1045.00 1044.76 1044.48 1044.20 1044.00 1043.76 1043.56 1043.32 1042.92 1042.48 1042.16 1041.92 1041.56 1041.04 1040.04 1039.16 1038.32 1037.56 1037.20 1036.88 1036.56 1036.68 1036.68 1036.64 1036.60 1036.48 1036.44 1036.36 1036.20
1047.56 1047.40 1047.16 1046.92 1046.76 1046.52 1046.28 1046.04 1045.84 1045.60 1045.36 1045.24 1045.00 1044.76 1044.52 1044.20 1044.00 1043.72 1043.44 1043.24 1043.00 1042.68 1042.24 1041.80 1041.52 1041.20 1040.68 1039.60 1038.64 1037.84 1037.24 1036.80 1036.56 1036.44 1036.52 1036.52 1036.52 1036.52 1036.48 1036.36 1036.28 1036.12
1047.28 1047.12 1046.88 1046.60 1046.40 1046.20 1046.00 1045.76 1045.56 1045.36 1045.12 1044.92 1044.80 1044.56 1044.32 1044.00 1043.76 1043.44 1043.08 1042.84 1042.64 1042.40 1042.00 1041.36 1040.96 1040.76 1040.04 1039.08 1038.28 1037.60 1037.00 1036.56 1036.44 1036.44 1036.36 1036.20 1036.12 1036.16 1036.16 1036.08 1036.00 1035.96
1047.00 1046.76 1046.56 1046.36 1046.16 1045.92 1045.72 1045.48 1045.28 1045.16 1044.96 1044.72 1044.52 1044.28 1044.04 1043.80 1043.44 1043.36 1042.96 1042.52 1042.24 1042.08 1041.68 1040.96 1040.36 1040.28 1039.64 1038.84 1038.16 1037.52 1036.84 1036.60 1036.48 1036.40 1036.12 1035.80 1035.68 1035.72 1035.68 1035.64 1035.64 1035.64
1046.76 1046.56 1046.36 1046.16 1045.96 1045.72 1045.48 1045.28 1045.04 1044.80 1044.68 1044.64 1044.32 1043.96 1043.72 1043.40 1043.12 1042.88 1042.68 1042.36 1041.92 1041.64 1041.44 1040.68 1040.00 1039.68 1039.56 1038.84 1038.04 1037.36 1036.84 1036.60 1036.36 1036.04 1035.76 1035.48 1035.28 1035.40 1035.36 1035.28 1035.24 1035.20
1046.52 1046.40 1046.20 1045.96 1045.80 1045.60 1045.32 1045.04 1044.96 1044.80 1044.64 1044.56 1044.32 1043.80 1043.32 1043.04 1042.84 1042.44 1042.20 1042.08 1041.72 1041.20 1041.04 1040.60 1039.60 1039.16 1039.16 1038.72 1037.96 1037.20 1036.76 1036.44 1036.08 1035.76 1035.36 1035.20 1035.00 1035.04 1035.16 1035.04 1034.88 1034.60
1046.36 1046.24 1046.08 1045.88 1045.60 1045.44 1045.36 1045.04 1044.76 1044.56 1044.40 1044.36 1044.12 1043.80 1043.28 1042.92 1042.64 1042.28 1041.68 1041.44 1041.32 1040.92 1040.52 1040.24 1039.48 1038.76 1038.60 1038.40 1037.80 1036.96 1036.48 1036.20 1035.76 1035.48 1035.16 1034.92 1034.88 1034.64 1034.68 1034.64 1034.36 1034.20
1046.16 1046.00 1045.84 1045.72 1045.44 1045.20 1045.16 1045.00 1044.76 1044.44 1044.16 1044.00 1043.72 1043.60 1043.12 1042.68 1042.44 1042.08 1041.52 1040.84 1040.68 1040.44 1040.00 1039.72 1039.28 1038.44 1038.08 1037.88 1037.40 1036.68 1036.12 1035.92 1035.72 1035.48 1034.96 1034.64 1034.60 1034.52 1034.12 1033.80 1033.92 1033.72
Thickness
5261 5257 5254 5251 5248 5245 5243 5240 5238 5234 5231 5228 5226 5224 5221 5218 5216 5214 5211 5208 5205 5202 5199 5197 5194 5191 5188 5186 5183 5181 5179 5179 5178 5178 5179 5176 5172 5169 5168 5167 5165 5164
5251 5248 5244 5241 5237 5234 5231 5228 5225 5221 5218 5214 5211 5209 5206 5203 5200 5198 5195 5193 5190 5186 5183 5180 5177 5174 5171 5169 5166 5163 5161 5160 5159 5157 5159 5159 5155 5151 5149 5148 5147 5145
5242 5239 5235 5231 5227 5224 5220 5217 5212 5209 5204 5200 5197 5194 5191 5189 5186 5183 5180 5177 5175 5171 5167 5164 5161 5157 5154 5151 5149 5146 5143 5140 5139 5138 5138 5138 5137 5134 5131 5129 5128 5126
5233 5230 5225 5221 5218 5213 5210 5205 5200 5196 5192 5187 5183 5179 5177 5174 5170 5168 5165 5161 5157 5155 5151 5147 5144 5141 5137 5134 5131 5128 5125 5122 5119 5118 5118 5118 5117 5115 5113 5111 5109 5108
5224 5220 5216 5211 5207 5203 5198 5193 5189 5183 5178 5174 5170 5166 5162 5159 5155 5153 5149 5145 5141 5137 5134 5130 5127 5123 5119 5116 5113 5109 5106 5105 5101 5098 5097 5098 5097 5095 5094 5092 5091 5090
5214 5209 5206 5201 5196 5192 5186 5181 5176 5171 5167 5162 5158 5154 5150 5145 5141 5137 5134 5130 5126 5121 5117 5114 5110 5106 5102 5097 5095 5091 5087 5085 5083 5080 5078 5079 5079 5077 5076 5074 5073 5073
5204 5199 5195 5190 5184 5180 5174 5169 5164 5159 5156 5151 5146 5141 5136 5133 5127 5123 5119 5114 5110 5105 5101 5097 5093 5089 5085 5080 5077 5074 5070 5066 5064 5063 5061 5060 5061 5061 5059 5058 5057 5058
5193 5189 5184 5179 5173 5168 5162 5158 5153 5148 5144 5139 5134 5129 5123 5118 5114 5108 5103 5098 5094 5089 5084 5080 5076 5072 5067 5062 5059 5057 5054 5051 5047 5046 5046 5044 5043 5044 5044 5042 5042 5044
5183 5178 5173 5168 5163 5157 5152 5147 5141 5136 5132 5127 5122 5116 5110 5104 5099 5094 5090 5084 5079 5074 5069 5064 5059 5055 5050 5045 5042 5040 5038 5036 5032 5030 5030 5029 5029 5029 5029 5029 5029 5031
5172 5167 5162 5157 5151 5146 5141 5136 5130 5124 5119 5114 5108 5103 5098 5092 5086 5080 5075 5070 5065 5060 5055 5050 5045 5040 5036 5031 5027 5024 5022 5021 5019 5017 5015 5015 5016 5016 5016 5018 5018 5019
5162 5156 5151 5146 5140 5135 5130 5124 5119 5113 5106 5101 5096 5091 5086 5080 5074 5068 5062 5057 5053 5048 5043 5038 5033 5028 5024 5019 5015 5011 5008 5007 5005 5004 5003 5002 5004 5004 5005 5007 5007 5007
5151 5146 5141 5136 5130 5125 5118 5113 5108 5101 5096 5090 5085 5080 5075 5069 5063 5057 5052 5047 5043 5037 5033 5028 5022 5017 5012 5008 5004 4999 4996 4994 4992 4991 4991 4991 4992 4993 4995 4996 4995 4994
5142 5136 5131 5125 5119 5114 5108 5102 5097 5091 5086 5080 5073 5069 5064 5059 5054 5049 5043 5039 5034 5029 5023 5018 5013 5007 5001 4997 4992 4988 4985 4983 4981 4980 4981 4981 4981 4984 4985 4984 4983 4981
5132 5126 5121 5114 5108 5103 5097 5092 5087 5080 5076 5070 5064 5059 5054 5049 5046 5042 5038 5032 5026 5022 5016 5010 5005 4998 4994 4989 4984 4979 4975 4973 4973 4972 4971 4972 4973 4975 4974 4972 4971 4969
5122 5116 5111 5104 5098 5093 5088 5082 5077 5071 5066 5061 5056 5051 5046 5042 5038 5035 5033 5029 5023 5018 5012 5005 5000 4994 4988 4982 4977 4974 4971 4969 4968 4966 4965 4966 4966 4965 4963 4960 4959 4959
5114 5108 5101 5095 5089 5083 5078 5073 5068 5063 5059 5054 5050 5045 5040 5037 5034 5030 5028 5025 5021 5016 5010 5004 4998 4993 4986 4980 4975 4973 4971 4968 4966 4963 4960 4960 4958 4955 4953 4952 4950 4950
5105 5099 5092 5085 5079 5074 5069 5065 5060 5056 5052 5048 5044 5040 5036 5034 5031 5029 5025 5022 5019 5015 5010 5004 4999 4993 4987 4982 4977 4973 4969 4966 4963 4960 4957 4954 4951 4948 4946 4944 4943 4942
5095 5090 5082 5076 5070 5066 5062 5057 5053 5050 5047 5043 5040 5036 5035 5032 5029 5027 5024 5020 5017 5013 5009 5004 4999 4994 4988 4984 4981 4976 4971 4967 4962 4959 4955 4949 4945 4942 4940 4938 4937 4936
5085 5079 5073 5068 5063 5059 5055 5051 5048 5046 5042 5040 5037 5034 5033 5031 5027 5025 5022 5019 5015 5012 5008 5004 4999 4995 4990 4986 4984 4980 4975 4971 4965 4960 4954 4948 4943 4939 4935 4934 4932 4931
5076 5070 5065 5060 5056 5053 5049 5046 5043 5041 5039 5036 5034 5032 5031 5029 5026 5023 5021 5018 5015 5011 5008 5004 5000 4996 4991 4988 4986 4983 4979 4974 4968 4963 4957 4950 4944 4939 4935 4932 4929 4928
5067 5063 5058 5054 5051 5047 5044 5041 5039 5038 5037 5035 5033 5030 5028 5027 5025 5022 5020 5017 5014 5010 5007 5005 5001 4997 4992 4991 4988 4984 4981 4977 4971 4965 4960 4954 4949 4943 4938 4934 4930 4927
5059 5057 5052 5048 5045 5042 5040 5038 5037 5036 5034 5032 5031 5029 5027 5025 5024 5020 5018 5017 5013 5010 5007 5005 5003 4998 4993 4991 4989 4986 4983 4978 4973 4968 4963 4959 4955 4948 4943 4939 4934 4930
5052 5050 5047 5043 5040 5039 5037 5036 5035 5034 5033 5030 5029 5028 5027 5025 5023 5020 5017 5015 5013 5010 5007 5006 5005 5000 4994 4992 4989 4987 4985 4980 4975 4971 4967 4963 4959 4953 4948 4944 4940 4935
5047 5043 5041 5039 5037 5036 5035 5034 5034 5032 5031 5028 5027 5027 5026 5024 5022 5020 5017 5013 5012 5010 5006 5005 5006 5002 4996 4993 4991 4988 4985 4982 4978 4975 4971 4968 4963 4958 4952 4948 4945 4941
5041 5038 5037 5035 5035 5034 5033 5032 5032 5031 5029 5027 5025 5024 5024 5023 5020 5019 5019 5014 5011 5010 5007 5005 5005 5004 4999 4994 4991 4989 4986 4983 4980 4977 4974 4971 4966 4962 4958 4952 4948 4946
5037 5035 5034 5033 5034 5033 5031 5030 5030 5029 5028 5027 5025 5023 5022 5021 5019 5018 5018 5016 5012 5010 5008 5005 5004 5004 5002 4997 4993 4991 4988 4984 4981 4978 4977 4973 4969 4964 4962 4958 4953 4950